Regional Weather Roundup
Issued by NWS

Home | Current Version | Previous Version | Text Only | Print | Product List | Glossary Off
Versions: 1 2 3 4 5 6 7 8 9 10 11 12 13 14 15 16 17 18 19 20 21 22 23 24 25 26 27 28 29 30 31 32 33 34 35 36 37 38 39 40 41 42 43 44 45 46 47 48 49 50

000
ASUS45 KPSR 220200
RWRAZ

PRELIMINARY ARIZONA REGIONAL HOURLY WEATHER ROUNDUP
NATIONAL WEATHER SERVICE PHOENIX AZ
700 PM MST SUN SEP 21 2014

NOTE: FAIR INDICATES FEW OR NO CLOUDS BELOW 12,000 FEET WITH NO
SIGNIFICANT WEATHER AND/OR OBSTRUCTIONS TO VISIBILITY.

AZZ001>003-036-220300-
NORTHWEST ARIZONA

CITY           SKY/WX    TMP DP  RH WIND       PRES   REMARKS
KINGMAN        CLEAR     77  35  21 SW8       30.02R
$$

AZZ004>008-015-016-018-220300-
NORTH CENTRAL ARIZONA

CITY           SKY/WX    TMP DP  RH WIND       PRES   REMARKS
GRAND CANYON   CLEAR     60  44  55 CALM      30.25R
PRESCOTT       CLEAR     72  45  37 SW7       30.15R
FLAGSTAFF      CLEAR     60  49  66 CALM      30.29R
PAYSON         CLEAR     73  55  53 W3        30.17R
PAGE           CLEAR     78  55  44 W5        30.08R
$$

AZZ009>014-017-220300-
NORTHEAST ARIZONA

CITY           SKY/WX    TMP DP  RH WIND       PRES   REMARKS
WINSLOW        NOT AVBL
SAINT JOHNS    CLOUDY    73  56  54 NE5       30.20R
SHOW LOW       MOCLDY    63  57  82 SE6       30.28S
$$

AZZ023-220300-
GREATER PHOENIX AREA

CITY           SKY/WX    TMP DP  RH WIND       PRES   REMARKS
PHOENIX        PTCLDY    96  51  21 NW8       29.84R
GLENDALE       PTCLDY    93  54  26 N3        29.86R
DEER VALLEY    CLEAR     92  51  24 W3        29.87R
SCOTTSDALE     CLEAR     93  53  25 W3        29.89R
MESA-FALCON    PTCLDY    93  54  26 W6        29.86R
MESA-GATEWAY   PTCLDY    93  57  29 CALM      29.89R
CHANDLER       PTCLDY    93  54  26 VRB3      29.86R
$$

AZZ027-028-220300-
SOUTHWEST MARICOPA COUNTY AND PINAL COUNTY

CITY           SKY/WX    TMP DP  RH WIND       PRES   REMARKS
CASA GRANDE    CLEAR     91  54  27 CALM      29.89R
$$

AZZ503-504-507>509-220300-
SOUTHEAST ARIZONA

CITY           SKY/WX    TMP DP  RH WIND       PRES   REMARKS
TUCSON         MOCLDY    90  56  31 N8        29.98R
RYAN FIELD       N/A     90  55  31 NW6       29.96R
NOGALES        MOCLDY    74  66  76 CALM      30.07R
SIERRA VISTA   MOCLDY    70  66  87 CALM      30.16R
SAFFORD        CLOUDY    79  66  64 NE6       30.01S
$$

AZZ020-021-025-026-031-220300-
SOUTHWEST ARIZONA

CITY           SKY/WX    TMP DP  RH WIND       PRES   REMARKS
YUMA           CLEAR     97  39  13 SW5       29.77S
$$

CAZ031-033-041-043-047-048-061-220300-
SOUTHERN CALIFORNIA

CITY           SKY/WX    TMP DP  RH WIND       PRES   REMARKS
DOWNTOWN L.A.  CLEAR     71  59  65 VRB5      29.92S
L.A. AIRPORT   PTCLDY    69  62  78 W15       29.94R
SAN DIEGO      PTCLDY    73  62  68 NW9       29.94R
BURBANK        CLEAR     73  57  57 VRB6      29.93R
ONTARIO        CLEAR     77  57  50 W13       29.92S
RIVERSIDE      CLEAR     76  58  53 W8        29.92R
PALM SPRINGS   CLEAR     94  45  18 NW10      29.82R
EL CENTRO NAS  CLEAR     93  40  15 NE5       29.76R
IMPERIAL       CLEAR     96  43  16 NE5       29.76R
BLYTHE         CLEAR     97  41  14 S6        29.78R
$$

NVZ020-UTZ003-220300-
SOUTHERN NEVADA-UTAH

CITY           SKY/WX    TMP DP  RH WIND       PRES   REMARKS
LAS VEGAS      NOT AVBL
SALT LAKE CITY PTCLDY    65  57  75 SE5       30.12S
$$

NMZ009-TXZ055-220300-
NEW MEXICO-WEST TEXAS

CITY           SKY/WX    TMP DP  RH WIND       PRES   REMARKS
ALBUQUERQUE    CLOUDY    73  52  47 E15       30.26R
EL PASO        CLOUDY    79  62  56 E15       30.12R
$$


........................KEY........................
SKY/WX - SKY CONDITION/WEATHER
TMP    - TEMPERATURE IN FAHRENHEIT
DP     - DEW POINT IN FAHRENHEIT
RH     - RELATIVE HUMIDITY IN PERCENT
WIND   - DIRECTION AND SPEED IN MILES PER HOUR (MPH)
VRB    - VARIABLE WIND DIRECTION
PRES   - MEAN SEA LEVEL PRESSURE IN INCHES OF MERCURY
         F - FALLING PRESSURE   R - RISING PRESSURE
         S - STEADY PRESSURE
VSB    - VISIBILITY IN MILES
HX     - HEAT INDEX IN FAHRENHEIT
WCI    - WIND CHILL INDEX IN FAHRENHEIT
TC     - TEMPERATURE IN CELSIUS WHICH IS ALSO KNOWN AS
         TEMPERATURE IN CENTIGRADE
AFB    - AIR FORCE BASE
         LUKE AFB IS LUKE AIR FORCE BASE
         DAVIS-MONTHAN IS DAVIS-MONTHAN AIR FORCE BASE
NAS    - NAVAL AIR STATION
         EL CENTRO NAS IS EL CENTRO NAVAL AIR STATION
N/A    - NOT AVAILABLE



USA.gov is the U.S. government's official web portal to all federal, state and local government web resources and services.